TECHNOSAT

Last updated on Fri Dec 29 2023 00:03:29 GMT+0000 (Coordinated Universal Time)

1 42829U 17042E 23362.52342342 .00003957 00000+0 36645-3 0 9990 2 42829 97.3774 188.4427 0011781 295.2477 64.7523 14.94976930351516
UTC large
Height (km)
Speed (km/s)
/
Latitude / Longitude
Inclination (degrees)
Orbital Period (minutes)
Azimuth
Elevation
Range (km)
Doppler Factor

Next 0 passes for location: London (51.5072 / 0.1276)

Sorry there are no passes over London.